Location: Bletchingley
(51.2333°N, 0.1000°W)
Time: 14:23:21
(UTC+00:00)

Cosmos 2266 Rocket - Pass Details

Date: 19 January 2021
Orbit: 934 x 1008 km, 82.9° (Epoch: 05 March)

Event Time Altitude Azimuth Distance (km) Brightness Sun altitude
Rises 05:25:53 0° 357° (N) 3,639 6.9 -22.7°
Reaches altitude 10° 05:29:37 10° 20° (NNE) 2,677 6.5 -22.1°
Maximum altitude 05:33:06 15° 55° (NE) 2,290 6.5 -21.5°
Drops below altitude 10° 05:36:33 10° 90° (E) 2,652 7.5 -21.0°
Sets 05:40:12 0° 113° (ESE) 3,587 8.3 -20.4°
